Weather reports worldwide

Advertisment
Forli, Italy (16147): temperature & dewpoint: 17.07.2019 22:00:00 - 23.07.2019 22:00:00 (CEST)Forli, Italy (16147): wind speed: 17.07.2019 22:00:00 - 23.07.2019 22:00:00 (CEST)Forli, Italy (16147): wind direction: 17.07.2019 22:00:00 - 23.07.2019 22:00:00 (CEST)Forli, Italy (16147): reduced air pressure: 17.07.2019 22:00:00 - 23.07.2019 22:00:00 (CEST)Forli, Italy (16147): visibility: 17.07.2019 22:00:00 - 23.07.2019 22:00:00 (CEST)Forli, Italy (16147): precipitation: 17.07.2019 22:00:00 - 23.07.2019 22:00:00 (CEST)
Date & Time tt [°C] td [°C] ff [km/h] ff [kn] dd ppp [hPa] vv [km] rr [mm]
23.07.2019 22:00:00 28,7 13,8 0 0 SSE 1014,5 - 0,0
23.07.2019 21:00:00 30,0 13,7 5 3 ESE 1014,3 - 0,0
23.07.2019 20:00:00 31,3 12,6 8 4 E 1014,5 - 0,0
23.07.2019 19:00:00 32,0 13,2 11 6 E 1014,5 - 0,0
23.07.2019 18:00:00 32,8 13,4 8 4 E 1014,6 10 0,0
23.07.2019 17:00:00 33,1 13,2 11 6 E 1015,2 10 0,0
23.07.2019 16:00:00 33,3 13,9 11 6 E 1015,5 10 0,0
23.07.2019 15:00:00 32,5 14,6 11 6 ENE 1015,9 10 0,0
23.07.2019 14:00:00 32,8 14,4 11 6 NE 1016,4 10 0,0
23.07.2019 13:00:00 32,4 15,0 5 3 - 1016,7 10 0,0
23.07.2019 12:00:00 31,4 16,2 2 1 - 1017,0 10 0,0
23.07.2019 11:00:00 30,7 18,1 0 0 N 1017,2 10 0,0
23.07.2019 10:00:00 28,4 19,9 4 2 N 1017,5 10 0,0
23.07.2019 09:00:00 26,7 19,6 5 3 W 1017,5 - 0,0
23.07.2019 08:00:00 24,4 19,0 6 3 WSW 1017,3 - 0,0
23.07.2019 07:00:00 23,0 18,5 - - - 1017,1 - -
23.07.2019 06:00:00 22,9 18,4 6 3 SSW 1017,0 - 0,0
23.07.2019 05:00:00 22,9 18,9 4 2 S 1016,9 - 0,0
23.07.2019 04:00:00 23,2 19,1 3 2 SSE 1017,1 - 0,0
23.07.2019 03:00:00 23,6 19,3 - - - 1017,3 - 0,0
23.07.2019 02:00:00 24,2 19,5 3 1 WSW 1017,5 - 0,0
23.07.2019 01:00:00 25,3 19,9 0 0 S 1017,6 - 0,0
23.07.2019 00:00:00 25,9 20,2 2 1 WSW 1017,6 - 0,0
22.07.2019 23:00:00 26,9 20,0 6 3 SW 1017,5 - 0,0
22.07.2019 22:00:00 28,2 18,3 2 1 SE 1017,3 - 0,0
22.07.2019 21:00:00 29,2 16,7 4 2 ESE 1016,9 - 0,0
22.07.2019 20:00:00 30,2 16,9 6 4 E 1016,8 - 0,0
22.07.2019 19:00:00 30,7 17,4 9 5 ESE 1016,7 - 0,0
22.07.2019 18:00:00 31,4 18,4 5 3 - 1016,9 10 0,0
22.07.2019 17:00:00 31,7 19,7 8 4 NE 1017,3 10 0,0
22.07.2019 16:00:00 32,2 16,5 0 0 N 1017,6 10 0,0
22.07.2019 15:00:00 31,8 16,5 0 0 N 1017,9 10 0,0
22.07.2019 14:00:00 31,3 16,1 4 2 - 1018,4 10 0,0
22.07.2019 13:00:00 30,5 17,2 4 2 - 1019,0 10 0,0
22.07.2019 12:00:00 29,9 17,4 0 0 N 1019,1 10 0,0
22.07.2019 11:00:00 28,7 16,3 4 2 - 1019,3 10 0,0
22.07.2019 10:00:00 28,0 17,2 3 1 WSW 1019,1 10 0,0
22.07.2019 09:00:00 25,5 16,1 2 1 SW 1019,2 - 0,0
22.07.2019 08:00:00 23,9 15,4 2 1 SW 1019,2 - 0,0
22.07.2019 07:00:00 21,9 13,8 3 2 WSW 1018,8 - 0,0
22.07.2019 06:00:00 21,8 13,2 1 1 SSW 1018,3 - 0,0
22.07.2019 05:00:00 21,8 13,4 6 4 WSW 1018,3 - 0,0
22.07.2019 04:00:00 23,0 12,0 2 1 S 1017,6 - 0,0
22.07.2019 03:00:00 23,5 13,4 0 0 SSW 1017,7 - 0,0
22.07.2019 02:00:00 23,8 14,5 1 0 SSW 1017,8 - 0,0
22.07.2019 01:00:00 24,8 14,0 5 3 S 1017,9 - 0,0
22.07.2019 00:00:00 25,7 15,1 6 3 S 1017,9 - 0,0
21.07.2019 23:00:00 26,9 16,8 4 2 SSW 1017,6 - 0,0
21.07.2019 22:00:00 28,0 16,3 5 3 SE 1017,1 - 0,0
21.07.2019 21:00:00 28,8 16,4 7 4 ESE 1015,9 - 0,0
21.07.2019 20:00:00 30,1 16,1 11 6 E 1015,5 - 0,0
21.07.2019 19:00:00 31,2 17,5 12 7 E 1015,2 - 0,0
21.07.2019 18:00:00 32,2 16,5 13 7 E 1014,9 - 0,0
21.07.2019 17:00:00 33,9 15,4 10 6 E 1015,0 - 0,0
21.07.2019 16:00:00 33,8 12,2 6 4 NNW 1015,4 - 0,0
21.07.2019 15:00:00 33,4 12,4 4 2 WNW 1015,8 - 0,0
21.07.2019 14:00:00 32,4 12,1 8 5 N 1016,2 - 0,0
21.07.2019 13:00:00 31,5 11,8 9 5 NW 1016,3 - 0,0
21.07.2019 12:00:00 30,7 12,1 9 5 NNW 1016,4 - 0,0
21.07.2019 11:00:00 29,7 11,7 10 5 WNW 1016,5 - 0,0
21.07.2019 10:00:00 29,1 11,6 6 4 W 1016,6 - 0,0
21.07.2019 09:00:00 27,0 13,0 4 2 W 1016,5 - 0,0
21.07.2019 08:00:00 25,1 13,0 1 0 S 1016,2 - 0,0
21.07.2019 07:00:00 22,9 12,2 5 3 WSW 1016,2 - 0,0
21.07.2019 06:00:00 23,1 12,1 3 2 SSW 1016,2 - 0,0
21.07.2019 05:00:00 23,3 12,3 1 0 SSW 1015,9 - 0,0
21.07.2019 04:00:00 23,8 12,4 3 2 SSW 1015,8 - 0,0
21.07.2019 03:00:00 24,6 12,5 4 2 SW 1016,1 - 0,0
21.07.2019 02:00:00 24,3 12,9 8 4 WSW 1015,9 - 0,0
21.07.2019 01:00:00 24,2 13,7 1 1 S 1015,8 - 0,0
21.07.2019 00:00:00 25,3 13,8 4 2 S 1015,9 - 0,0
20.07.2019 23:00:00 25,6 16,2 2 1 S 1015,5 - 0,0
20.07.2019 22:00:00 26,9 18,7 3 2 SE 1015,1 - 0,0
20.07.2019 21:00:00 28,1 18,8 7 4 ESE 1014,3 - 0,0
20.07.2019 20:00:00 29,4 17,2 9 5 E 1014,0 - 0,0
20.07.2019 19:00:00 30,4 15,3 13 7 E 1014,0 - 0,0
20.07.2019 18:00:00 30,7 14,3 15 8 E 1014,1 - 0,0
20.07.2019 17:00:00 31,7 15,2 13 7 ENE 1014,1 - 0,0
20.07.2019 16:00:00 33,2 12,8 7 4 N 1014,3 - 0,0
20.07.2019 15:00:00 32,9 13,0 5 3 N 1014,6 - 0,0
20.07.2019 14:00:00 32,1 12,8 5 3 N 1014,7 - 0,0
20.07.2019 13:00:00 30,9 12,3 6 3 S 1015,0 - 0,0
20.07.2019 12:00:00 29,9 12,3 5 3 N 1015,2 - 0,0
20.07.2019 11:00:00 29,2 11,7 3 2 W 1015,3 - 0,0
20.07.2019 10:00:00 26,9 11,8 2 1 WNW 1015,3 - 0,0
20.07.2019 09:00:00 25,2 12,4 2 1 SSW 1015,3 - 0,0
20.07.2019 08:00:00 22,2 12,7 1 0 SW 1015,0 - 0,0
20.07.2019 07:00:00 20,5 11,1 3 2 SW 1014,6 - 0,0
20.07.2019 06:00:00 19,6 13,3 4 2 SW 1014,3 - 0,0
20.07.2019 05:00:00 21,0 13,2 6 3 S 1013,8 - 0,0
20.07.2019 04:00:00 20,8 14,2 0 0 WSW 1013,8 - 0,0
20.07.2019 03:00:00 21,9 15,3 4 2 SW 1013,8 - 0,0
20.07.2019 02:00:00 22,1 15,9 4 2 SW 1013,9 - 0,0
20.07.2019 01:00:00 22,7 16,3 0 0 SW 1013,9 - 0,0
20.07.2019 00:00:00 23,1 15,9 5 3 S 1013,8 - 0,0
19.07.2019 23:00:00 24,2 15,4 6 3 SSW 1013,5 - 0,0
19.07.2019 22:00:00 25,7 15,7 3 2 SE 1013,4 - 0,0
19.07.2019 21:00:00 27,2 13,5 5 3 E 1013,0 - 0,0
19.07.2019 20:00:00 28,2 12,9 9 5 E 1012,4 - 0,0
19.07.2019 19:00:00 28,7 14,5 12 6 E 1012,2 - 0,0
19.07.2019 18:00:00 29,0 18,0 15 8 E - 10 -
19.07.2019 17:00:00 29,0 15,5 13 7 ENE 1012,2 10 0,0
19.07.2019 16:00:00 28,8 16,4 16 9 NE 1012,4 10 0,0
19.07.2019 15:00:00 29,7 15,4 8 4 NNW 1012,7 10 0,0
19.07.2019 14:00:00 28,9 15,1 5 3 - 1013,0 10 0,0
19.07.2019 13:00:00 28,9 15,8 4 2 - 1013,3 10 0,0
19.07.2019 12:00:00 27,0 15,7 4 2 - 1013,6 10 0,0
19.07.2019 11:00:00 26,1 16,1 4 2 - 1013,6 10 0,0
19.07.2019 10:00:00 24,5 16,5 4 2 - 1013,5 10 0,0
19.07.2019 09:00:00 23,0 15,1 2 1 W 1013,4 - 0,0
19.07.2019 08:00:00 20,7 13,2 - - - 1013,1 - 0,0
19.07.2019 07:00:00 18,9 12,6 5 3 SW 1012,8 - 0,0
19.07.2019 06:00:00 18,6 13,2 3 2 SW 1012,5 - 0,0
19.07.2019 05:00:00 18,7 13,1 8 4 SW 1012,3 - 0,0
19.07.2019 04:00:00 19,5 14,9 5 3 SW 1012,2 - 0,0
19.07.2019 03:00:00 20,3 14,9 0 0 NW 1011,8 - 0,0
19.07.2019 02:00:00 20,3 15,9 4 2 WSW 1011,7 - 0,0
19.07.2019 01:00:00 20,9 16,3 3 2 S 1011,5 - 0,0
19.07.2019 00:00:00 21,6 16,6 8 4 S 1011,2 - 0,0
18.07.2019 23:00:00 22,0 16,5 4 2 S 1011,0 - 0,0
18.07.2019 22:00:00 22,7 16,5 9 5 S 1010,7 - 0,0
18.07.2019 21:00:00 23,8 16,6 8 4 S 1009,9 - 0,0
18.07.2019 20:00:00 24,5 17,2 5 3 S 1009,7 - 0,0
18.07.2019 19:00:00 25,8 14,9 5 3 SSE 1009,6 - 0,0
18.07.2019 18:00:00 26,2 17,3 5 3 - 1009,5 8 0,0
18.07.2019 17:00:00 25,9 18,6 8 4 WNW 1009,4 8 0,0
18.07.2019 16:00:00 26,8 18,1 13 7 NW 1009,4 10 0,0
18.07.2019 15:00:00 27,5 16,8 16 9 NW 1009,4 10 0,0
18.07.2019 14:00:00 28,8 11,8 0 0 N 1009,1 10 0,0
18.07.2019 13:00:00 28,7 10,8 8 4 NNE 1009,0 - 0,0
18.07.2019 12:00:00 27,8 11,8 2 1 - 1009,0 10 0,0
18.07.2019 11:00:00 26,7 12,0 4 2 - 1008,9 10 0,0
18.07.2019 10:00:00 26,2 10,8 4 2 N 1008,8 10 0,0
18.07.2019 09:00:00 25,2 11,0 0 0 SW 1008,6 - 0,0
18.07.2019 08:00:00 21,4 10,2 4 2 S 1008,4 - 0,0
18.07.2019 07:00:00 19,8 9,7 1 0 WSW 1008,1 - 0,0
18.07.2019 06:00:00 19,8 9,1 7 4 S 1007,8 - 0,0
18.07.2019 05:00:00 20,3 8,9 6 4 S 1007,7 - 0,0
18.07.2019 04:00:00 20,9 9,8 5 3 S 1007,7 - 0,0
18.07.2019 03:00:00 21,1 12,2 4 2 SSE 1007,8 - 0,0
18.07.2019 02:00:00 21,6 12,4 5 3 S 1008,0 - 0,0
18.07.2019 01:00:00 21,7 13,3 5 3 SSE 1008,2 - 0,0
18.07.2019 00:00:00 22,3 13,1 4 2 S 1008,1 - 0,0
17.07.2019 23:00:00 23,0 14,0 4 2 SW 1008,1 - 0,0
17.07.2019 22:00:00 25,0 14,2 0 0 S 1008,0 - 0,0

tt = temperature
td = dewpoint
ff = wind speed
dd = wind direction
ppp = reduced air pressure
vv = visibility
rr = precipitation

Next stations